CFG4CW EDLW-LEPA

Flight info

Callsign CFG4CW
Flight time 2h 9m
Altitude 34000
Route BAMSU M170 NVO Y841 KENUM DCT GESLO DCT LIMGO/N0451F350 DCT SUTAL DCT GTQ DCT POGOL DCT LASAT DCT MOROK DCT GILIR DCT GEVEA DCT INCUS DCT BALSI DCT RETNO DCT TUPOX DCT MTG DCT DIVKO DCT VATIR N852 VERSO DCT LUNIK
Aircraft A320/M-SDE3FGHIJ1LORVWXYZ/LB1

Departure

Time 2026-05-06 18:07
Airport Dortmund Airport (EDLW)

Arrival

Time 2026-05-06 20:17
Airport Palma de Mallorca Airport (LEPA)
Time Latitude Longitude Altitude Speed Heading
2026-05-06 17:12 51.51626 7.61400 434 ft 0 kts 331°
2026-05-06 18:00 51.51651 7.61378 420 ft 9 kts 331°
2026-05-06 18:00 51.51662 7.61284 429 ft 10 kts 250°
2026-05-06 18:01 51.51630 7.61184 425 ft 9 kts 241°
2026-05-06 18:01 51.51588 7.61061 425 ft 20 kts 243°
2026-05-06 18:01 51.51522 7.60856 425 ft 17 kts 241°
2026-05-06 18:01 51.51470 7.60708 418 ft 10 kts 241°
2026-05-06 18:02 51.51459 7.60674 415 ft 0 kts 241°
2026-05-06 18:03 51.51449 7.60646 420 ft 4 kts 241°
2026-05-06 18:03 51.51437 7.60611 416 ft 3 kts 242°
2026-05-06 18:04 51.51433 7.60598 417 ft 0 kts 240°
2026-05-06 18:04 51.51432 7.60598 417 ft 0 kts 240°
2026-05-06 18:05 51.51431 7.60594 418 ft 3 kts 240°
2026-05-06 18:05 51.51400 7.60507 419 ft 13 kts 239°
2026-05-06 18:05 51.51360 7.60386 418 ft 12 kts 253°
2026-05-06 18:05 51.51402 7.60268 415 ft 18 kts 323°
2026-05-06 18:06 51.51478 7.60224 413 ft 8 kts 52°
2026-05-06 18:06 51.51491 7.60255 413 ft 0 kts 58°
2026-05-06 18:06 51.51492 7.60255 413 ft 0 kts 58°
2026-05-06 18:07 51.51626 7.60629 415 ft 82 kts 60°
2026-05-06 18:07 51.52040 7.61786 418 ft 153 kts 56°
2026-05-06 18:07 51.52602 7.63302 1003 ft 158 kts 56°
2026-05-06 18:07 51.53173 7.64909 1739 ft 170 kts 58°
2026-05-06 18:08 51.53778 7.66647 2193 ft 188 kts 58°
2026-05-06 18:08 51.54456 7.68588 2495 ft 211 kts 58°
2026-05-06 18:08 51.55218 7.70759 2826 ft 235 kts 59°
2026-05-06 18:08 51.56009 7.73162 3420 ft 250 kts 69°
2026-05-06 18:09 51.56090 7.75973 4122 ft 263 kts 105°
2026-05-06 18:09 51.55122 7.78455 4780 ft 275 kts 138°
2026-05-06 18:09 51.53421 7.79778 5034 ft 277 kts 174°
2026-05-06 18:09 51.51550 7.79232 5831 ft 277 kts 210°
2026-05-06 18:10 51.50173 7.77157 6720 ft 273 kts 237°
2026-05-06 18:10 51.49240 7.74514 7587 ft 272 kts 246°
2026-05-06 18:10 51.48507 7.71695 8400 ft 275 kts 248°
2026-05-06 18:10 51.47718 7.68864 9111 ft 283 kts 248°
2026-05-06 18:11 51.46852 7.65939 9623 ft 296 kts 248°
2026-05-06 18:11 51.45947 7.62925 10181 ft 306 kts 247°
2026-05-06 18:11 51.44992 7.59725 10376 ft 330 kts 247°
2026-05-06 18:11 51.43977 7.56287 10636 ft 349 kts 247°
2026-05-06 18:12 51.42949 7.52773 11241 ft 355 kts 247°
2026-05-06 18:12 51.41805 7.49248 11974 ft 359 kts 239°
2026-05-06 18:12 51.40223 7.46137 12733 ft 363 kts 226°
2026-05-06 18:12 51.38226 7.43645 13480 ft 367 kts 212°
2026-05-06 18:13 51.35908 7.41879 14157 ft 370 kts 203°
2026-05-06 18:13 51.33516 7.40342 14796 ft 371 kts 203°
2026-05-06 18:13 51.31118 7.38795 15458 ft 373 kts 204°
2026-05-06 18:13 51.28705 7.37239 15779 ft 374 kts 203°
2026-05-06 18:14 51.26292 7.35684 15867 ft 373 kts 203°
2026-05-06 18:14 51.23880 7.34130 15876 ft 373 kts 203°
2026-05-06 18:14 51.21483 7.32510 16112 ft 375 kts 208°
2026-05-06 18:14 51.19269 7.30310 16759 ft 375 kts 219°
2026-05-06 18:15 51.17353 7.27497 17380 ft 375 kts 230°
2026-05-06 18:15 51.15763 7.24251 17979 ft 377 kts 234°
2026-05-06 18:15 51.14196 7.20881 18529 ft 380 kts 234°
2026-05-06 18:15 51.12619 7.17488 19045 ft 382 kts 234°
2026-05-06 18:16 51.11027 7.14069 19566 ft 385 kts 234°
2026-05-06 18:16 51.09426 7.10644 20089 ft 387 kts 234°
2026-05-06 18:16 51.07808 7.07197 20618 ft 390 kts 234°
2026-05-06 18:16 51.06180 7.03733 21140 ft 392 kts 233°
2026-05-06 18:17 51.04541 7.00250 21621 ft 395 kts 233°
2026-05-06 18:17 51.02882 6.96735 22088 ft 398 kts 233°
2026-05-06 18:17 51.01210 6.93203 22598 ft 400 kts 233°
2026-05-06 18:17 50.99534 6.89667 23035 ft 403 kts 233°
2026-05-06 18:18 50.97837 6.86092 23459 ft 406 kts 233°
2026-05-06 18:18 50.96005 6.82751 23838 ft 409 kts 224°
2026-05-06 18:18 50.93848 6.79705 24227 ft 410 kts 221°
2026-05-06 18:18 50.91692 6.76717 24561 ft 413 kts 221°
2026-05-06 18:19 50.89553 6.73752 24926 ft 414 kts 221°
2026-05-06 18:19 50.87389 6.70754 25303 ft 416 kts 221°
2026-05-06 18:19 50.85210 6.67728 25631 ft 418 kts 223°
2026-05-06 18:19 50.83229 6.64353 25966 ft 420 kts 232°
2026-05-06 18:20 50.81625 6.60500 26341 ft 420 kts 242°
2026-05-06 18:20 50.80415 6.56273 26636 ft 423 kts 248°
2026-05-06 18:20 50.79327 6.51925 26902 ft 426 kts 248°
2026-05-06 18:20 50.78229 6.47560 27218 ft 428 kts 247°
2026-05-06 18:21 50.76855 6.43401 27516 ft 429 kts 233°
2026-05-06 18:21 50.74810 6.39972 27790 ft 430 kts 217°
2026-05-06 18:21 50.72261 6.37617 28079 ft 431 kts 201°
2026-05-06 18:21 50.69349 6.36479 28355 ft 433 kts 185°
2026-05-06 18:22 50.66337 6.36422 28656 ft 434 kts 179°
2026-05-06 18:22 50.63311 6.36492 28901 ft 436 kts 179°
2026-05-06 18:22 50.60275 6.36574 29194 ft 437 kts 179°
2026-05-06 18:22 50.57231 6.36659 29495 ft 437 kts 179°
2026-05-06 18:23 50.54185 6.36740 29730 ft 439 kts 179°
2026-05-06 18:23 50.51125 6.36814 29945 ft 441 kts 179°
2026-05-06 18:23 50.48049 6.36885 30129 ft 442 kts 179°
2026-05-06 18:23 50.44962 6.36954 30388 ft 442 kts 179°
2026-05-06 18:24 50.41900 6.37022 30652 ft 441 kts 179°
2026-05-06 18:24 50.38840 6.37090 30922 ft 440 kts 179°
2026-05-06 18:24 50.35774 6.37159 31163 ft 440 kts 179°
2026-05-06 18:24 50.32704 6.37230 31370 ft 441 kts 180°
2026-05-06 18:25 50.29635 6.37300 31654 ft 440 kts 180°
2026-05-06 18:25 50.26609 6.37367 31921 ft 440 kts 180°
2026-05-06 18:25 50.23508 6.37436 32189 ft 439 kts 180°
2026-05-06 18:25 50.20495 6.37504 32434 ft 439 kts 180°
2026-05-06 18:26 50.17428 6.37576 32687 ft 439 kts 180°
2026-05-06 18:26 50.14377 6.37646 32942 ft 439 kts 180°
2026-05-06 18:26 50.11319 6.37715 33206 ft 438 kts 180°
2026-05-06 18:26 50.08266 6.37782 33467 ft 438 kts 180°
2026-05-06 18:27 50.05215 6.37851 33723 ft 438 kts 180°
2026-05-06 18:27 50.02168 6.37924 33962 ft 437 kts 180°
2026-05-06 18:27 49.99161 6.37996 34179 ft 437 kts 180°
2026-05-06 18:27 49.96127 6.38067 34375 ft 436 kts 180°
2026-05-06 18:28 49.93101 6.38133 34631 ft 434 kts 180°
2026-05-06 18:28 49.90080 6.38199 34846 ft 434 kts 179°
2026-05-06 18:28 49.87088 6.38817 35031 ft 435 kts 168°
2026-05-06 18:28 49.84140 6.39908 35194 ft 436 kts 168°
2026-05-06 18:29 49.81194 6.41015 35363 ft 436 kts 168°
2026-05-06 18:29 49.78244 6.42135 35524 ft 437 kts 167°
2026-05-06 18:29 49.75292 6.43257 35670 ft 437 kts 168°
2026-05-06 18:29 49.72332 6.44377 35828 ft 437 kts 168°
2026-05-06 18:30 49.69374 6.45487 35979 ft 438 kts 168°
2026-05-06 18:30 49.66417 6.46590 36138 ft 438 kts 168°
2026-05-06 18:30 49.63450 6.47697 36280 ft 438 kts 168°
2026-05-06 18:30 49.60487 6.48805 36416 ft 438 kts 168°
2026-05-06 18:31 49.57516 6.49914 36552 ft 439 kts 168°
2026-05-06 18:31 49.54583 6.51011 36674 ft 439 kts 168°
2026-05-06 18:31 49.51616 6.52121 36828 ft 439 kts 168°
2026-05-06 18:31 49.48642 6.53228 36862 ft 440 kts 168°
2026-05-06 18:32 49.42678 6.55445 36867 ft 441 kts 168°
2026-05-06 18:32 49.36711 6.57650 36865 ft 441 kts 168°
2026-05-06 18:33 49.30749 6.59851 36861 ft 440 kts 168°
2026-05-06 18:33 49.24830 6.62033 36861 ft 440 kts 168°
2026-05-06 18:34 49.18868 6.64229 36869 ft 440 kts 168°
2026-05-06 18:34 49.12907 6.66414 36870 ft 440 kts 168°
2026-05-06 18:35 49.06955 6.68583 36877 ft 440 kts 168°
2026-05-06 18:35 49.01004 6.70744 36881 ft 439 kts 169°
2026-05-06 18:36 48.94998 6.71515 36884 ft 435 kts 183°
2026-05-06 18:36 48.88936 6.71265 36890 ft 435 kts 183°
2026-05-06 18:37 48.83902 6.71042 36884 ft 436 kts 183°
2026-05-06 18:37 48.76806 6.70745 36884 ft 436 kts 183°
2026-05-06 18:38 48.70769 6.70518 36890 ft 436 kts 183°
2026-05-06 18:38 48.64695 6.70292 36891 ft 436 kts 183°
2026-05-06 18:39 48.58621 6.70066 36895 ft 436 kts 183°
2026-05-06 18:40 48.49547 6.69714 36903 ft 436 kts 183°
2026-05-06 18:40 48.43472 6.69472 36904 ft 436 kts 183°
2026-05-06 18:41 48.37401 6.69232 36907 ft 436 kts 183°
2026-05-06 18:41 48.31329 6.68996 36915 ft 436 kts 183°
2026-05-06 18:42 48.25249 6.68767 36920 ft 436 kts 183°
2026-05-06 18:42 48.19217 6.68538 36921 ft 436 kts 183°
2026-05-06 18:43 48.13139 6.68310 36922 ft 436 kts 183°
2026-05-06 18:43 48.07070 6.68082 36928 ft 436 kts 183°
2026-05-06 18:44 48.01047 6.67848 36931 ft 435 kts 183°
2026-05-06 18:44 47.94981 6.67612 36930 ft 436 kts 183°
2026-05-06 18:45 47.88905 6.67393 36930 ft 436 kts 183°
2026-05-06 18:45 47.83873 6.67208 36930 ft 436 kts 183°
2026-05-06 18:46 47.77809 6.66967 36936 ft 435 kts 183°
2026-05-06 18:46 47.71738 6.66738 36938 ft 436 kts 183°
2026-05-06 18:47 47.65721 6.66523 36933 ft 435 kts 183°
2026-05-06 18:47 47.59659 6.66294 36929 ft 435 kts 183°
2026-05-06 18:48 47.53588 6.66062 36932 ft 435 kts 183°
2026-05-06 18:48 47.47531 6.65841 36940 ft 435 kts 183°
2026-05-06 18:49 47.41542 6.64892 36932 ft 432 kts 197°
2026-05-06 18:49 47.36176 6.61094 36927 ft 428 kts 217°
2026-05-06 18:50 47.31637 6.55468 36940 ft 429 kts 220°
2026-05-06 18:50 47.27097 6.49759 36942 ft 429 kts 220°
2026-05-06 18:51 47.22550 6.44074 36950 ft 429 kts 220°
2026-05-06 18:51 47.17981 6.38377 36949 ft 429 kts 220°
2026-05-06 18:52 47.13422 6.32709 36950 ft 429 kts 220°
2026-05-06 18:52 47.08791 6.27175 36961 ft 429 kts 213°
2026-05-06 18:53 47.03326 6.23718 36954 ft 431 kts 193°
2026-05-06 18:53 46.97378 6.22706 36943 ft 433 kts 187°
2026-05-06 18:54 46.91375 6.21923 36953 ft 433 kts 187°
2026-05-06 18:54 46.85370 6.21132 36959 ft 433 kts 187°
2026-05-06 18:55 46.79358 6.20321 36959 ft 434 kts 187°
2026-05-06 18:55 46.73375 6.19526 36961 ft 434 kts 187°
2026-05-06 18:56 46.67359 6.18729 36964 ft 434 kts 187°
2026-05-06 18:56 46.61343 6.17926 36965 ft 434 kts 187°
2026-05-06 18:57 46.55332 6.17128 36966 ft 434 kts 187°
2026-05-06 18:57 46.49320 6.16339 36967 ft 434 kts 187°
2026-05-06 18:58 46.43375 6.15565 36966 ft 434 kts 187°
2026-05-06 18:58 46.37361 6.14775 36959 ft 433 kts 188°
2026-05-06 18:59 46.31341 6.13993 36964 ft 434 kts 187°
2026-05-06 18:59 46.25333 6.13210 36966 ft 433 kts 188°
2026-05-06 19:00 46.19357 6.12081 36958 ft 432 kts 191°
2026-05-06 19:00 46.13428 6.10646 36964 ft 432 kts 192°
2026-05-06 19:01 46.07535 6.09237 36969 ft 432 kts 191°
2026-05-06 19:01 46.01585 6.07903 36968 ft 432 kts 191°
2026-05-06 19:02 45.95644 6.06610 36963 ft 432 kts 191°
2026-05-06 19:02 45.89701 6.05312 36968 ft 431 kts 191°
2026-05-06 19:03 45.83769 6.04002 36969 ft 431 kts 191°
2026-05-06 19:03 45.77883 6.02697 36964 ft 430 kts 192°
2026-05-06 19:04 45.71959 6.01390 36966 ft 430 kts 191°
2026-05-06 19:04 45.66034 6.00091 36970 ft 430 kts 191°
2026-05-06 19:05 45.60155 5.98807 36956 ft 429 kts 192°
2026-05-06 19:05 45.54239 5.97514 36970 ft 429 kts 192°
2026-05-06 19:06 45.48338 5.96220 36962 ft 429 kts 192°
2026-05-06 19:06 45.42517 5.94651 36974 ft 427 kts 195°
2026-05-06 19:07 45.36742 5.92726 36963 ft 426 kts 196°
2026-05-06 19:07 45.30962 5.90815 36968 ft 426 kts 195°
2026-05-06 19:08 45.25170 5.89004 36978 ft 426 kts 195°
2026-05-06 19:08 45.19373 5.87224 36977 ft 425 kts 195°
2026-05-06 19:09 45.13590 5.85438 36978 ft 425 kts 195°
2026-05-06 19:09 45.07816 5.83650 36983 ft 424 kts 195°
2026-05-06 19:10 45.02042 5.81868 36957 ft 423 kts 196°
2026-05-06 19:10 44.96319 5.80109 36972 ft 423 kts 196°
2026-05-06 19:11 44.90565 5.78345 36972 ft 422 kts 196°
2026-05-06 19:11 44.84811 5.76583 36956 ft 422 kts 196°
2026-05-06 19:12 44.79107 5.74831 36966 ft 421 kts 196°
2026-05-06 19:12 44.73377 5.73077 36970 ft 421 kts 196°
2026-05-06 19:13 44.67644 5.71335 36973 ft 421 kts 196°
2026-05-06 19:13 44.61913 5.69595 36977 ft 422 kts 196°
2026-05-06 19:14 44.56172 5.67847 36970 ft 422 kts 196°
2026-05-06 19:14 44.50468 5.66114 36966 ft 422 kts 196°
2026-05-06 19:15 44.44720 5.64370 36953 ft 422 kts 196°
2026-05-06 19:15 44.38976 5.62632 36956 ft 421 kts 198°
2026-05-06 19:16 44.33509 5.59887 36954 ft 417 kts 205°
2026-05-06 19:16 44.28104 5.56916 36936 ft 417 kts 205°
2026-05-06 19:17 44.22705 5.53961 36949 ft 416 kts 205°
2026-05-06 19:17 44.17340 5.51038 36956 ft 416 kts 205°
2026-05-06 19:18 44.11943 5.48106 36959 ft 416 kts 205°
2026-05-06 19:18 44.06557 5.45174 36944 ft 415 kts 205°
2026-05-06 19:19 44.01177 5.42253 36952 ft 414 kts 205°
2026-05-06 19:19 43.95832 5.39361 36954 ft 414 kts 205°
2026-05-06 19:20 43.90464 5.36456 36957 ft 413 kts 205°
2026-05-06 19:20 43.85108 5.33559 36946 ft 413 kts 205°
2026-05-06 19:21 43.79752 5.30664 36956 ft 414 kts 205°
2026-05-06 19:21 43.74386 5.27776 36954 ft 414 kts 205°
2026-05-06 19:22 43.69040 5.24912 36936 ft 414 kts 205°
2026-05-06 19:22 43.63659 5.22036 36947 ft 414 kts 205°
2026-05-06 19:23 43.58282 5.19162 36949 ft 414 kts 205°
2026-05-06 19:23 43.52912 5.16300 36951 ft 414 kts 205°
2026-05-06 19:24 43.47541 5.13430 36942 ft 413 kts 205°
2026-05-06 19:24 43.42213 5.10586 36949 ft 413 kts 205°
2026-05-06 19:25 43.37065 5.07208 36954 ft 407 kts 217°
2026-05-06 19:25 43.32405 5.02796 36948 ft 407 kts 217°
2026-05-06 19:26 43.27729 4.98395 36939 ft 407 kts 217°
2026-05-06 19:26 43.23266 4.94211 36971 ft 408 kts 217°
2026-05-06 19:27 43.18575 4.89812 36964 ft 408 kts 217°
2026-05-06 19:27 43.13883 4.85413 36967 ft 409 kts 217°
2026-05-06 19:28 43.09186 4.81013 36953 ft 408 kts 217°
2026-05-06 19:28 43.04418 4.76770 36969 ft 410 kts 212°
2026-05-06 19:29 42.99426 4.72986 36980 ft 410 kts 213°
2026-05-06 19:29 42.94460 4.69221 36983 ft 410 kts 213°
2026-05-06 19:30 42.89471 4.65439 36980 ft 410 kts 213°
2026-05-06 19:30 42.84490 4.61673 36998 ft 409 kts 213°
2026-05-06 19:31 42.79489 4.57917 36994 ft 409 kts 213°
2026-05-06 19:31 42.72039 4.52317 36991 ft 410 kts 213°
2026-05-06 19:32 42.67039 4.48563 36990 ft 410 kts 213°
2026-05-06 19:32 42.62035 4.44817 36990 ft 410 kts 212°
2026-05-06 19:33 42.57055 4.41098 36993 ft 411 kts 212°
2026-05-06 19:33 42.52047 4.37362 36972 ft 410 kts 213°
2026-05-06 19:34 42.47039 4.33636 36990 ft 410 kts 213°
2026-05-06 19:34 42.42034 4.29917 37006 ft 410 kts 213°
2026-05-06 19:35 42.37031 4.26195 36998 ft 410 kts 213°
2026-05-06 19:35 42.32064 4.22508 36985 ft 409 kts 213°
2026-05-06 19:36 42.27069 4.18809 37007 ft 409 kts 213°
2026-05-06 19:36 42.22912 4.15741 37008 ft 409 kts 213°
2026-05-06 19:37 42.17103 4.11476 36997 ft 409 kts 213°
2026-05-06 19:37 42.12917 4.08401 36999 ft 409 kts 213°
2026-05-06 19:38 42.07963 4.04758 36988 ft 408 kts 213°
2026-05-06 19:38 42.02977 4.01100 36990 ft 408 kts 213°
2026-05-06 19:39 41.97982 3.97449 36999 ft 408 kts 213°
2026-05-06 19:39 41.92932 3.93945 36999 ft 411 kts 206°
2026-05-06 19:40 41.87302 3.92182 36971 ft 418 kts 195°
2026-05-06 19:40 41.81589 3.90874 36980 ft 418 kts 195°
2026-05-06 19:41 41.75851 3.89549 36988 ft 418 kts 195°
2026-05-06 19:41 41.70111 3.88223 36971 ft 418 kts 195°
2026-05-06 19:42 41.64413 3.86909 36983 ft 418 kts 195°
2026-05-06 19:42 41.58670 3.85590 36991 ft 418 kts 195°
2026-05-06 19:43 41.52936 3.84276 36996 ft 418 kts 195°
2026-05-06 19:43 41.47202 3.82963 36978 ft 418 kts 196°
2026-05-06 19:44 41.41473 3.81644 36993 ft 417 kts 196°
2026-05-06 19:44 41.35742 3.80332 37014 ft 418 kts 196°
2026-05-06 19:45 41.30046 3.79042 37011 ft 418 kts 196°
2026-05-06 19:45 41.24305 3.77740 36937 ft 418 kts 196°
2026-05-06 19:46 41.21420 3.77079 35984 ft 424 kts 197°
2026-05-06 19:46 41.18511 3.76414 35127 ft 420 kts 197°
2026-05-06 19:46 41.15679 3.75709 34307 ft 406 kts 202°
2026-05-06 19:46 41.13056 3.74552 33352 ft 391 kts 208°
2026-05-06 19:47 41.10544 3.73254 32449 ft 383 kts 208°
2026-05-06 19:47 41.08085 3.71988 31630 ft 374 kts 208°
2026-05-06 19:47 41.05709 3.70769 31156 ft 361 kts 208°
2026-05-06 19:47 41.03363 3.69557 30632 ft 362 kts 207°
2026-05-06 19:48 41.01055 3.68358 30097 ft 360 kts 207°
2026-05-06 19:48 40.98727 3.67153 29512 ft 360 kts 207°
2026-05-06 19:48 40.96401 3.65955 28978 ft 357 kts 207°
2026-05-06 19:48 40.94092 3.64769 28459 ft 354 kts 207°
2026-05-06 19:49 40.91796 3.63593 27943 ft 352 kts 207°
2026-05-06 19:49 40.89510 3.62425 27432 ft 351 kts 207°
2026-05-06 19:49 40.87242 3.61264 26921 ft 349 kts 207°
2026-05-06 19:49 40.84980 3.60104 26398 ft 348 kts 207°
2026-05-06 19:50 40.82729 3.58949 25919 ft 347 kts 207°
2026-05-06 19:50 40.80511 3.57815 25434 ft 345 kts 206°
2026-05-06 19:50 40.78272 3.56671 24961 ft 344 kts 206°
2026-05-06 19:50 40.76049 3.55533 24495 ft 342 kts 206°
2026-05-06 19:51 40.73835 3.54401 24032 ft 341 kts 206°
2026-05-06 19:51 40.71621 3.53272 23596 ft 340 kts 206°
2026-05-06 19:51 40.69417 3.52150 23104 ft 338 kts 206°
2026-05-06 19:51 40.67224 3.51033 22679 ft 337 kts 206°
2026-05-06 19:52 40.65069 3.49936 22267 ft 335 kts 206°
2026-05-06 19:52 40.62895 3.48832 21845 ft 334 kts 206°
2026-05-06 19:52 40.60732 3.47737 21428 ft 332 kts 206°
2026-05-06 19:52 40.58577 3.46645 21008 ft 331 kts 206°
2026-05-06 19:53 40.56435 3.45559 20577 ft 329 kts 206°
2026-05-06 19:53 40.54299 3.44477 20146 ft 328 kts 206°
2026-05-06 19:53 40.52167 3.43399 19712 ft 327 kts 205°
2026-05-06 19:53 40.50048 3.42328 19269 ft 326 kts 205°
2026-05-06 19:54 40.47931 3.41256 18828 ft 325 kts 205°
2026-05-06 19:54 40.45842 3.40206 18387 ft 326 kts 203°
2026-05-06 19:54 40.43624 3.39497 17895 ft 331 kts 192°
2026-05-06 19:54 40.41259 3.39385 17662 ft 350 kts 182°
2026-05-06 19:55 40.38804 3.39528 17412 ft 354 kts 182°
2026-05-06 19:55 40.36336 3.39675 17149 ft 354 kts 182°
2026-05-06 19:55 40.33872 3.39821 16885 ft 353 kts 182°
2026-05-06 19:55 40.31421 3.39962 16621 ft 352 kts 182°
2026-05-06 19:56 40.28975 3.40097 16358 ft 351 kts 182°
2026-05-06 19:56 40.26537 3.40236 16096 ft 350 kts 181°
2026-05-06 19:56 40.24136 3.40374 15839 ft 349 kts 181°
2026-05-06 19:56 40.21683 3.40513 15575 ft 347 kts 181°
2026-05-06 19:57 40.19305 3.40647 15304 ft 346 kts 181°
2026-05-06 19:57 40.16905 3.40783 15059 ft 344 kts 181°
2026-05-06 19:57 40.14514 3.40921 14803 ft 343 kts 181°
2026-05-06 19:57 40.12133 3.41055 14546 ft 342 kts 181°
2026-05-06 19:58 40.09759 3.41187 14293 ft 341 kts 181°
2026-05-06 19:58 40.07396 3.41322 14038 ft 339 kts 181°
2026-05-06 19:58 40.05039 3.41458 13779 ft 338 kts 181°
2026-05-06 19:58 40.02693 3.41592 13505 ft 337 kts 181°
2026-05-06 19:59 40.00355 3.41726 13251 ft 336 kts 181°
2026-05-06 19:59 39.98024 3.41858 12997 ft 335 kts 181°
2026-05-06 19:59 39.95703 3.41988 12742 ft 333 kts 180°
2026-05-06 19:59 39.93387 3.42117 12495 ft 332 kts 180°
2026-05-06 20:00 39.91078 3.42244 12246 ft 331 kts 180°
2026-05-06 20:00 39.88779 3.42375 11996 ft 330 kts 180°
2026-05-06 20:00 39.86485 3.42506 11744 ft 329 kts 180°
2026-05-06 20:00 39.84230 3.42632 11505 ft 328 kts 180°
2026-05-06 20:01 39.81921 3.42758 11254 ft 327 kts 180°
2026-05-06 20:01 39.79678 3.42880 11007 ft 326 kts 179°
2026-05-06 20:01 39.77408 3.43006 10762 ft 325 kts 179°
2026-05-06 20:01 39.75152 3.43133 10510 ft 324 kts 179°
2026-05-06 20:02 39.72929 3.43126 10319 ft 314 kts 189°
2026-05-06 20:02 39.70890 3.42352 10194 ft 299 kts 207°
2026-05-06 20:02 39.69215 3.40860 10077 ft 288 kts 225°
2026-05-06 20:02 39.67999 3.38826 9975 ft 284 kts 242°
2026-05-06 20:03 39.67116 3.36525 9985 ft 284 kts 244°
2026-05-06 20:03 39.66235 3.34221 9986 ft 285 kts 244°
2026-05-06 20:03 39.65343 3.31914 9986 ft 285 kts 244°
2026-05-06 20:03 39.64462 3.29647 9927 ft 286 kts 244°
2026-05-06 20:04 39.63564 3.27341 9477 ft 287 kts 244°
2026-05-06 20:04 39.62669 3.25031 9039 ft 286 kts 244°
2026-05-06 20:04 39.61781 3.22731 8625 ft 285 kts 243°
2026-05-06 20:04 39.60900 3.20445 8280 ft 281 kts 243°
2026-05-06 20:05 39.60028 3.18191 8035 ft 279 kts 243°
2026-05-06 20:05 39.59157 3.15947 7824 ft 278 kts 243°
2026-05-06 20:05 39.58287 3.13707 7619 ft 278 kts 243°
2026-05-06 20:05 39.57415 3.11465 7413 ft 277 kts 243°
2026-05-06 20:06 39.56559 3.09260 7210 ft 277 kts 242°
2026-05-06 20:06 39.55693 3.07032 7004 ft 277 kts 242°
2026-05-06 20:06 39.54830 3.04807 6979 ft 276 kts 243°
2026-05-06 20:06 39.53966 3.02582 6983 ft 276 kts 243°
2026-05-06 20:07 39.53098 3.00348 6909 ft 279 kts 243°
2026-05-06 20:07 39.52227 2.98101 6451 ft 280 kts 243°
2026-05-06 20:07 39.51352 2.95848 6013 ft 279 kts 243°
2026-05-06 20:07 39.50485 2.93624 5836 ft 276 kts 243°
2026-05-06 20:08 39.49616 2.91418 5582 ft 275 kts 243°
2026-05-06 20:08 39.48750 2.89219 5313 ft 273 kts 242°
2026-05-06 20:08 39.47888 2.87033 5055 ft 273 kts 242°
2026-05-06 20:08 39.47031 2.84847 4818 ft 272 kts 242°
2026-05-06 20:09 39.46177 2.82664 4573 ft 271 kts 242°
2026-05-06 20:09 39.45327 2.80487 4310 ft 270 kts 242°
2026-05-06 20:09 39.44491 2.78343 4098 ft 269 kts 242°
2026-05-06 20:09 39.43702 2.76148 3960 ft 270 kts 250°
2026-05-06 20:10 39.43322 2.73771 3834 ft 270 kts 263°
2026-05-06 20:10 39.43113 2.71353 3739 ft 271 kts 263°
2026-05-06 20:10 39.42896 2.68927 3591 ft 271 kts 262°
2026-05-06 20:10 39.42675 2.66512 3401 ft 270 kts 262°
2026-05-06 20:11 39.42454 2.64125 3225 ft 261 kts 262°
2026-05-06 20:11 39.42247 2.61882 3110 ft 248 kts 262°
2026-05-06 20:11 39.42048 2.59700 2886 ft 241 kts 262°
2026-05-06 20:11 39.41855 2.57574 2758 ft 236 kts 262°
2026-05-06 20:12 39.41825 2.55495 2629 ft 230 kts 280°
2026-05-06 20:12 39.42311 2.53534 2501 ft 229 kts 301°
2026-05-06 20:12 39.43451 2.52168 2397 ft 225 kts 340°
2026-05-06 20:12 39.44958 2.52019 2331 ft 218 kts 20°
2026-05-06 20:13 39.46185 2.53084 2332 ft 214 kts 57°
2026-05-06 20:13 39.46925 2.54748 2331 ft 213 kts 61°
2026-05-06 20:13 39.47688 2.56314 2326 ft 199 kts 59°
2026-05-06 20:13 39.48393 2.57766 2316 ft 183 kts 60°
2026-05-06 20:14 39.49046 2.59130 2111 ft 172 kts 60°
2026-05-06 20:14 39.49652 2.60401 1904 ft 160 kts 60°
2026-05-06 20:14 39.50210 2.61574 1733 ft 145 kts 61°
2026-05-06 20:14 39.50730 2.62668 1529 ft 140 kts 61°
2026-05-06 20:15 39.51235 2.63733 1346 ft 138 kts 60°
2026-05-06 20:15 39.51738 2.64792 1158 ft 138 kts 59°
2026-05-06 20:15 39.52231 2.65833 982 ft 136 kts 59°
2026-05-06 20:15 39.52732 2.66887 800 ft 138 kts 59°
2026-05-06 20:16 39.53232 2.67942 628 ft 137 kts 59°
2026-05-06 20:16 39.53730 2.68993 429 ft 136 kts 60°
2026-05-06 20:16 39.54228 2.70040 251 ft 136 kts 58°
2026-05-06 20:16 39.54725 2.71078 86 ft 135 kts 58°
2026-05-06 20:17 39.55185 2.72072 31 ft 113 kts 58°
2026-05-06 20:17 39.55509 2.72751 30 ft 71 kts 58°
2026-05-06 20:17 39.55706 2.73176 30 ft 30 kts 69°
2026-05-06 20:17 39.55721 2.73394 30 ft 9 kts 93°
2026-05-06 20:18 39.55687 2.73447 30 ft 7 kts 147°
2026-05-06 20:18 39.55647 2.73480 30 ft 7 kts 147°
2026-05-06 20:18 39.55585 2.73531 30 ft 12 kts 148°
2026-05-06 20:18 39.55505 2.73595 30 ft 14 kts 148°
2026-05-06 20:19 39.55414 2.73665 30 ft 16 kts 149°
2026-05-06 20:19 39.55311 2.73746 30 ft 18 kts 147°
2026-05-06 20:19 39.55197 2.73836 30 ft 20 kts 148°
2026-05-06 20:19 39.55071 2.73935 30 ft 22 kts 149°
2026-05-06 20:20 39.54982 2.74001 30 ft 12 kts 163°
2026-05-06 20:20 39.54919 2.73962 30 ft 9 kts 195°
2026-05-06 20:20 39.54866 2.73990 30 ft 9 kts 152°
2026-05-06 20:20 39.54811 2.73986 30 ft 8 kts 216°
2026-05-06 20:21 39.54771 2.73905 30 ft 11 kts 239°
2026-05-06 20:21 39.54735 2.73826 30 ft 10 kts 239°
2026-05-06 20:21 39.54698 2.73744 30 ft 10 kts 239°
2026-05-06 20:21 39.54664 2.73670 30 ft 9 kts 240°
2026-05-06 20:22 39.54671 2.73616 30 ft 5 kts 311°
2026-05-06 20:22 39.54695 2.73586 30 ft 4 kts 319°
2026-05-06 20:22 39.54717 2.73575 30 ft 1 kts 16°
2026-05-06 20:22 39.54730 2.73589 30 ft 6 kts 39°
2026-05-06 20:23 39.54755 2.73636 30 ft 2 kts 58°
2026-05-06 20:23 39.54757 2.73641 30 ft 0 kts 58°